STARLINK-1271, 45217

Orbit data source: Space-Track

STARLINK-1271, 45217 is a payload satellite owned by SpaceX/Seattle (US) in LEO that was launched on Mon, 17 Feb 2020 UTC via an FALCON 9 launch vehicle from the Air Force Eastern Test Range (AFETR). Payload-class satellites include a variety of spacecraft equipped with specific instruments for various scientific and technological missions. These include communications satellites like Starlink; space stations such as the ISS; scientific satellites like the Hubble; Earth observation satellites from companies like Planet Labs, Umbra, and HawkEye 360; GPS; miniature CubeSats for education and research; and military/defense satellites.

Loading next visibility...
Identifier
45217, 2020-012AR
Orbit
LEO
Country
Flag of USUS
Related business
Manufacturer
SpaceX/Seattle
Mission
Operational Commercial Communications
Bus & Motor
STARLINK, Unknown motor
Mass
260 kg wet, ~248 kg dry
Launch date (UTC)
2020-02-17 (6 years ago)
Launch vehicle
FALCON 9
Launch site
Air Force Eastern Test Range (AFETR)
Object type
Payload
Rocket body
Debris
Shape & HBR
Box + 1 Pan, 10.1 m
Radar Cross Section
13.562 m², Large (>1 m²)

Expand to show TLE details & history
Last TLE update: 23 hours ago

TLE from 23 hours ago
0 STARLINK-1271
1 45217U 20012AR  25287.82285128  .00000377  00000-0  44204-4 0  9999
2 45217  53.0551 321.4415 0001387  92.5524 267.5624 15.06392295313131
Epoch: 2025-10-14T19:44Z
TLE epoch observation values (Epoch: 2025-10-14T19:44:54.350Z)
Latitude
-0.00001°
Longitude
1.60928°
Altitude
548.155 km
Speed
7.589 km/s
True Right ascension
21h 25m 45s
True Declination
0° 00' 00"
Sunlit
Object was in full shadow at epoch
Visualization orbit readout
Latitude
Unknown
Longitude
Unknown
Altitude
Unknown
Speed
Unknown
Apparent Right ascension
Unknown
Apparent Declination
Unknown
Sunlit
N/A
Visualization observer readout
Local Sidereal Time
13:44:24
Azimuth
Unknown
Elevation
Unknown
Doppler factor
Unknown
Orbital elements
Apogee altitude
548.466 km
Perigee altitude
546.545 km
Semi-major axis
6,925.643 km
Eccentricity
0.00014
Inclination
53.0551°
RAAN
321.4415°
Arg. of periapsis
92.5524°
True anomaly
267.54652°
Mean anomaly
267.5624°
Eccentric anomaly
267.55446°
Mean motion
3.76576 °/min
Orbital period
95.6 mins
BSTAR
0.000044204
Loading maneuver chart data...
Computing Atmospheric mass density...
Loading historical data...
Loading historical data...
Loading historical data...
Loading historical data...
Loading historical data...
Loading historical data...
Loading historical data...

Documentation

Showing up to 5 results
|